TimeMDT,TemperatureF,Dew PointF,Humidity,Sea Level PressureIn,VisibilityMPH,Wind Direction,Wind SpeedMPH,Gust SpeedMPH,PrecipitationIn,Events,Conditions,WindDirDegrees,DateUTC
12:53 AM,30.9,12.0,46,30.23,10.0,Calm,Calm,-,N/A,,Clear,0,2013-03-19 06:53:00
1:53 AM,32.0,14.0,48,30.22,10.0,Calm,Calm,-,N/A,,Clear,0,2013-03-19 07:53:00
2:53 AM,30.9,17.1,57,30.23,10.0,Calm,Calm,-,N/A,,Clear,0,2013-03-19 08:53:00
3:53 AM,26.1,14.0,60,30.24,10.0,Calm,Calm,-,N/A,,Clear,0,2013-03-19 09:53:00
4:53 AM,28.0,12.9,53,30.24,10.0,Calm,Calm,-,N/A,,Clear,0,2013-03-19 10:53:00
5:53 AM,23.0,12.0,63,30.25,10.0,West,4.6,-,N/A,,Clear,270,2013-03-19 11:53:00
6:53 AM,21.9,10.9,63,30.26,10.0,West,3.5,-,N/A,,Clear,260,2013-03-19 12:53:00
7:53 AM,21.0,10.9,65,30.29,10.0,Calm,Calm,-,N/A,,Clear,0,2013-03-19 13:53:00
8:53 AM,23.0,12.9,65,30.32,10.0,Calm,Calm,-,N/A,,Clear,0,2013-03-19 14:53:00
9:53 AM,30.0,17.1,59,30.32,10.0,Calm,Calm,-,N/A,,Clear,0,2013-03-19 15:53:00
10:53 AM,37.0,19.0,48,30.31,10.0,Calm,Calm,-,N/A,,Clear,0,2013-03-19 16:53:00
11:53 AM,43.0,19.0,38,30.30,10.0,Variable,3.5,-,N/A,,Clear,0,2013-03-19 17:53:00
12:53 PM,46.9,21.9,37,30.28,10.0,Variable,4.6,-,N/A,,Partly Cloudy,0,2013-03-19 18:53:00
1:53 PM,50.0,21.9,33,30.24,10.0,Calm,Calm,-,N/A,,Scattered Clouds,0,2013-03-19 19:53:00
2:53 PM,53.1,18.0,25,30.20,10.0,NE,4.6,-,N/A,,Mostly Cloudy,50,2013-03-19 20:53:00
3:53 PM,54.0,18.0,24,30.16,10.0,Variable,4.6,-,N/A,,Mostly Cloudy,0,2013-03-19 21:53:00
4:53 PM,57.9,17.1,20,30.12,10.0,NE,3.5,-,N/A,,Mostly Cloudy,50,2013-03-19 22:53:00
5:53 PM,57.0,15.1,19,30.09,10.0,Calm,Calm,-,N/A,,Mostly Cloudy,0,2013-03-19 23:53:00
6:53 PM,55.9,19.0,24,30.06,10.0,North,5.8,-,N/A,,Overcast,350,2013-03-20 00:53:00
7:53 PM,54.0,19.0,25,30.03,10.0,North,3.5,-,N/A,,Overcast,10,2013-03-20 01:53:00
8:53 PM,52.0,19.0,27,30.01,10.0,NNE,3.5,-,N/A,,Overcast,30,2013-03-20 02:53:00
9:53 PM,54.0,10.9,18,29.99,10.0,ENE,3.5,-,N/A,,Overcast,70,2013-03-20 03:53:00
10:53 PM,55.9,10.0,16,29.98,10.0,South,12.7,-,N/A,,Overcast,170,2013-03-20 04:53:00
11:53 PM,55.9,8.1,15,29.94,10.0,SSE,9.2,-,N/A,,Overcast,160,2013-03-20 05:53:00